Prague, Czech Republic

1:05 AM CEST on October 22, 2017 (GMT +0200)
Ruzyne

Weather History for LKPR - October, 2017

Change the Weather History Date:

Friday, October 13, 2017

  Actual Average Record
Temperature  
Mean Temperature 54 °F -  
Max Temperature 62 °F 50 °F 68 °F (2001)
Min Temperature 47 °F 36 °F 28 °F (2015)
Degree Days  
Heating Degree Days 10    
Growing Degree Days 4 (Base 50)    
Moisture  
Dew Point 47 °F    
Average Humidity 76    
Maximum Humidity 94    
Minimum Humidity 48    
Precipitation  
Precipitation 0.00 in 0.04 in - ()
Sea Level Pressure  
Sea Level Pressure 30.28 in    
Wind  
Wind Speed 10 mph ()    
Max Wind Speed 16 mph    
Max Gust Speed -    
Visibility 7.7 miles    
Events      
Averages and records for this station are not official NWS values.
T = Trace of Precipitation, MM = Missing Value Source: Averaged Metar Reports

Daily Weather History Graph

Daily Weather History Graph

Search for Another Location

Airport or City:

Trip Planner

Search our weather history database for the weather conditions in past years. The results will help you decide how hot, cold, wet, or windy it might be!

Date:

Astronomy

Oct. 13, 2017 Rise Set
Actual Time 7:21 AM CEST 6:15 PM CEST
Civil Twilight 6:49 AM CEST 6:48 PM CEST
Nautical Twilight 6:11 AM CEST 7:25 PM CEST
Astronomical Twilight 5:33 AM CEST 8:03 PM CEST
Moon No Moon Rise 3:25 PM CEST (10/13)
Length of Visible Light 11h 58m
Length of Day
10h 53m
Last Quarter, 40% of the Moon is Illuminated
Oct 13
Last Quarter
Oct 19
New
Oct 28
First Quarter
Nov 4
Full
Nov 10
Last Quarter

Hourly Weather History & Observations

Time (CEST) Temp. Dew Point Humidity Pressure Visibility Wind Dir Wind Speed Gust Speed Precip Events Conditions
12:00 AM 53 °F 48 °F 76% 30.25 in 31 mi WSW 11.2 mph - -   Scattered Clouds
12:00 AM 53.6 °F 48.2 °F 82% 30.24 in 6.2 mi WSW 12.7 mph - N/A   Partly Cloudy
12:30 AM 53.6 °F 48.2 °F 82% 30.24 in 6.2 mi SW 13.8 mph - N/A   Scattered Clouds
1:00 AM 53 °F 48 °F 76% 30.25 in 31 mi WSW 11.2 mph - -   Scattered Clouds
1:00 AM 53.6 °F 48.2 °F 82% 30.24 in 6.2 mi SW 11.5 mph - N/A   Partly Cloudy
1:30 AM 51.8 °F 48.2 °F 88% 30.24 in 6.2 mi WSW 10.4 mph - N/A   Partly Cloudy
2:00 AM 51 °F 47 °F 82% 30.27 in 31 mi WSW 8.9 mph - -   Scattered Clouds
2:00 AM 50.0 °F 46.4 °F 87% 30.24 in 6.2 mi SW 8.1 mph - N/A   Partly Cloudy
2:30 AM 50.0 °F 48.2 °F 94% 30.24 in 6.2 mi SW 10.4 mph - N/A   Scattered Clouds
3:00 AM 51 °F 47 °F 83% 30.27 in 19 mi WSW 8.9 mph - -   Scattered Clouds
3:00 AM 50.0 °F 48.2 °F 94% 30.24 in 6.2 mi SW 8.1 mph - N/A   Partly Cloudy
3:30 AM 50.0 °F 46.4 °F 87% 30.24 in - SW 9.2 mph - N/A   Clear
4:00 AM 50 °F 47 °F 88% 30.28 in 19 mi WSW 8.9 mph - -   Scattered Clouds
4:00 AM 50.0 °F 46.4 °F 87% 30.24 in 6.2 mi WSW 10.4 mph - N/A   Partly Cloudy
4:30 AM 48.2 °F 46.4 °F 93% 30.24 in 6.2 mi WSW 8.1 mph - N/A   Partly Cloudy
5:00 AM 50.0 °F 46.4 °F 87% 30.27 in - WSW 10.4 mph - N/A   Clear
5:30 AM 50.0 °F 46.4 °F 87% 30.27 in - WSW 11.5 mph - N/A   Clear
6:00 AM 50 °F 47 °F 85% 30.29 in 16 mi WSW 11.2 mph - -   Clear
6:00 AM 50.0 °F 46.4 °F 87% 30.27 in - WSW 11.5 mph - N/A   Clear
6:30 AM 48.2 °F 46.4 °F 93% 30.27 in - WSW 12.7 mph - N/A   Clear
7:00 AM 49 °F 47 °F 89% 30.30 in 12 mi WSW 8.9 mph - -   Clear
7:00 AM 48.2 °F 46.4 °F 93% 30.27 in - WSW 13.8 mph - N/A   Clear
7:30 AM 50.0 °F 46.4 °F 87% 30.27 in - WSW 11.5 mph - N/A   Clear
8:00 AM 50 °F 47 °F 87% 30.30 in 12 mi WSW 8.9 mph - -   Scattered Clouds
8:00 AM 50.0 °F 46.4 °F 87% 30.27 in - SW 10.4 mph - N/A   Clear
8:30 AM 51.8 °F 48.2 °F 88% 30.30 in - WSW 11.5 mph - N/A   Clear
9:00 AM 52 °F 49 °F 85% 30.31 in 19 mi WSW 11.2 mph - -   Scattered Clouds
9:00 AM 51.8 °F 48.2 °F 88% 30.30 in - WSW 12.7 mph - N/A   Clear
9:30 AM 53.6 °F 48.2 °F 82% 30.30 in - WSW 13.8 mph - N/A   Clear
10:00 AM 53.6 °F 48.2 °F 82% 30.30 in 6.2 mi WSW 16.1 mph - N/A   Scattered Clouds
10:30 AM 55.4 °F 48.2 °F 77% 30.30 in 6.2 mi WSW 13.8 mph - N/A   Mostly Cloudy
11:00 AM 56 °F 48 °F 67% 30.32 in 28 mi WSW 11.2 mph - -   Mostly Cloudy
11:00 AM 57.2 °F 48.2 °F 72% 30.30 in 6.2 mi SW 12.7 mph - N/A   Mostly Cloudy
11:30 AM 59.0 °F 48.2 °F 67% 30.30 in 6.2 mi WSW 11.5 mph - N/A   Mostly Cloudy
12:00 PM 59 °F 49 °F 61% 30.30 in 28 mi WSW 13.4 mph - -   Mostly Cloudy
12:00 PM 59.0 °F 48.2 °F 67% 30.30 in 6.2 mi WSW 13.8 mph - N/A   Mostly Cloudy
12:30 PM 60.8 °F 50.0 °F 68% 30.30 in 6.2 mi WSW 12.7 mph - N/A   Scattered Clouds
1:00 PM 59 °F 49 °F 60% 30.30 in 31 mi WSW 13.4 mph - -   Mostly Cloudy
1:00 PM 59.0 °F 50.0 °F 72% 30.30 in 6.2 mi WSW 13.8 mph - N/A   Mostly Cloudy
1:30 PM 60.8 °F 50.0 °F 68% 30.30 in 6.2 mi WSW 13.8 mph - N/A   Scattered Clouds
2:00 PM 60.8 °F 50.0 °F 68% 30.27 in 6.2 mi WSW 12.7 mph - N/A   Mostly Cloudy
2:30 PM 60.8 °F 50.0 °F 68% 30.27 in 6.2 mi WSW 13.8 mph - N/A   Mostly Cloudy
3:00 PM 60 °F 50 °F 61% 30.28 in 34 mi West 8.9 mph - -   Mostly Cloudy
3:00 PM 60.8 °F 50.0 °F 68% 30.27 in 6.2 mi WSW 10.4 mph - N/A   Mostly Cloudy
3:30 PM 60.8 °F 48.2 °F 63% 30.27 in 6.2 mi West 11.5 mph - N/A   Scattered Clouds
4:00 PM 62 °F 48 °F 49% 30.27 in 37 mi West 13.4 mph - -   Partly Cloudy
4:00 PM 62.6 °F 48.2 °F 59% 30.27 in 6.2 mi WSW 13.8 mph - N/A   Scattered Clouds
4:30 PM 62.6 °F 46.4 °F 55% 30.27 in 6.2 mi West 13.8 mph - N/A   Partly Cloudy
5:00 PM 61 °F 46 °F 48% 30.27 in 37 mi West 11.2 mph - -   Scattered Clouds
5:00 PM 60.8 °F 46.4 °F 59% 30.27 in 6.2 mi West 12.7 mph - N/A   Partly Cloudy
5:30 PM 60.8 °F 46.4 °F 59% 30.27 in 6.2 mi West 8.1 mph - N/A   Scattered Clouds
6:00 PM 59 °F 46 °F 52% 30.29 in 37 mi NW 6.7 mph - -   Partly Cloudy
6:00 PM 59.0 °F 46.4 °F 63% 30.27 in 6.2 mi WNW 9.2 mph - N/A   Scattered Clouds
6:30 PM 57.2 °F 46.4 °F 67% 30.27 in 6.2 mi West 5.8 mph - N/A   Partly Cloudy
7:00 PM 53 °F 45 °F 65% 30.31 in 37 mi WSW 6.7 mph - -   Scattered Clouds
7:00 PM 53.6 °F 44.6 °F 72% 30.30 in 6.2 mi WSW 5.8 mph - N/A   Partly Cloudy
7:30 PM 51.8 °F 44.6 °F 76% 30.30 in - SW 6.9 mph - N/A   Clear
8:00 PM 52 °F 45 °F 69% 30.32 in 31 mi WSW 6.7 mph - -   Scattered Clouds
8:00 PM 51.8 °F 44.6 °F 76% 30.30 in - SW 6.9 mph - N/A   Clear
8:30 PM 50.0 °F 44.6 °F 82% 30.30 in 6.2 mi SW 8.1 mph - N/A   Scattered Clouds
9:00 PM 51.8 °F 46.4 °F 82% 30.30 in 6.2 mi WSW 10.4 mph - N/A   Scattered Clouds
9:30 PM 50.0 °F 44.6 °F 82% 30.30 in - SW 9.2 mph - N/A   Clear
10:00 PM 52 °F 46 °F 73% 30.33 in 31 mi WSW 8.9 mph - -   Scattered Clouds
10:00 PM 51.8 °F 46.4 °F 82% 30.33 in - SW 8.1 mph - N/A   Clear
10:30 PM 50.0 °F 44.6 °F 82% 30.33 in 6.2 mi SW 9.2 mph - N/A   Scattered Clouds
11:00 PM 52 °F 47 °F 79% 30.34 in 31 mi WSW 8.9 mph - -   Partly Cloudy
11:00 PM 51.8 °F 48.2 °F 88% 30.33 in 6.2 mi SW 8.1 mph - N/A   Scattered Clouds
11:30 PM 51.8 °F 46.4 °F 82% 30.33 in 6.2 mi SW 9.2 mph - N/A   Scattered Clouds